Temperature
14 14 15 15 15 14 14 13 13 13 13 14 14 14 14 14 14 15 15 15 16 16 16 16 16 16 16 16 16 16 16 16 16 16 16 16 17 17
13 13 14 14 14 14 14 14 13 13 13 13 13 13 13 13 13 14 14 14 15 15 15 15 15 15 15 16 16 16 16 16 16 16 16 16 16 16
12 12 13 13 13 14 14 13 13 13 13 13 13 13 13 13 13 13 13 14 14 14 14 14 15 15 15 15 15 15 15 15 15 15 15 16 16 16
11 12 12 13 13 13 13 13 13 13 13 13 13 13 13 13 12 12 12 12 13 13 13 14 14 14 14 14 14 14 15 15 15 15 15 15 15 15
10 11 11 12 12 13 13 13 13 13 13 12 13 13 12 12 12 12 12 12 12 12 12 13 13 13 13 13 13 14 14 14 14 14 14 14 14 15
9 10 10 11 11 12 12 13 13 13 13 12 12 12 12 12 12 12 11 11 11 11 12 12 12 12 12 12 12 13 13 13 13 13 13 13 13 14
9 9 10 10 11 11 11 12 12 12 12 12 12 12 12 12 12 11 11 11 11 11 11 11 11 11 12 12 12 12 12 12 12 12 12 12 12 12
9 9 9 10 10 11 11 11 12 12 12 12 12 12 12 12 12 12 11 11 10 10 11 11 11 11 11 11 11 11 11 12 12 12 12 12 12 12
8 9 9 10 10 10 11 11 11 12 12 12 12 12 12 12 12 11 11 11 11 10 10 10 10 10 10 10 10 10 11 11 11 11 11 11 11 11
8 8 9 9 10 10 10 11 11 11 12 12 12 12 13 13 12 12 11 11 11 10 10 10 10 10 10 10 10 10 10 10 10 10 10 10 11 11
8 8 8 9 9 9 10 10 11 11 11 12 12 12 12 12 12 11 11 11 10 9 10 10 9 9 9 9 9 9 9 9 9 9 9 10 10 10
8 8 8 8 9 9 9 10 10 11 11 11 11 11 12 11 11 11 11 11 11 9 9 10 9 9 8 8 8 8 8 8 8 8 9 9 9 9
8 8 8 8 8 9 9 10 10 11 11 11 11 11 11 11 11 11 11 12 12 11 10 10 10 9 9 7 7 7 8 8 8 8 8 8 8 8
7 8 8 8 8 9 9 9 10 10 10 11 11 11 11 11 11 11 11 11 12 12 11 11 10 10 9 8 7 7 7 7 7 7 7 7 8 8
7 8 8 8 8 8 9 9 9 10 10 10 10 11 11 11 10 10 10 10 10 10 11 10 11 10 10 9 8 7 7 7 7 7 7 7 7 7
7 7 8 8 8 8 9 9 9 10 10 10 10 11 11 10 10 10 10 10 10 10 10 10 10 10 10 9 9 8 8 7 7 7 7 7 7 7
7 7 7 7 8 8 8 9 9 9 10 10 10 10 10 10 10 10 10 10 10 10 10 9 9 9 9 9 9 8 8 8 8 7 7 7 7 7
7 6 7 7 7 7 8 8 9 9 10 10 10 10 10 10 10 10 10 10 10 10 10 10 9 9 9 8 9 9 8 8 8 8 8 8 8 8
6 6 6 7 7 7 8 8 8 9 9 10 10 10 10 10 10 10 10 10 10 10 10 10 10 9 9 8 8 8 8 8 8 8 8 8 8 8
6 6 6 7 7 7 7 8 8 9 9 10 10 10 10 10 10 10 10 10 10 10 10 10 10 10 10 9 9 9 9 8 8 8 8 8 8 8
6 6 6 7 7 7 8 8 8 9 9 9 10 10 10 10 10 10 10 10 10 10 10 10 10 10 10 9 9 9 9 9 9 9 9 9 9 9
6 6 6 7 7 7 8 8 8 9 9 9 10 10 10 10 10 10 10 10 10 10 10 10 9 9 9 9 9 9 9 9 9 9 9 9 9 9
6 7 7 7 7 8 8 8 8 9 9 9 9 9 9 9 9 10 10 10 9 9 9 9 9 9 9 9 9 9 9 9 9 9 9 9 9 9
Wind_Speed
7 7 7 6 6 7 6 5 4 3 3 2 1 0 1 2 4 5 5 8 8 7 7 6 5 3 2 2 4 6 7 8 10 13 15 17 20 23
5 7 7 6 6 6 7 7 7 5 5 2 2 1 1 2 5 6 7 10 11 10 10 9 8 7 6 4 3 2 2 2 3 4 7 10 13 17
5 6 7 7 6 6 6 7 7 7 7 4 2 2 2 4 4 6 7 7 9 12 12 12 12 11 11 10 9 8 8 8 7 6 5 4 4 6
6 6 7 6 7 7 7 8 8 8 8 7 4 3 2 5 6 6 5 7 9 13 14 14 14 14 14 14 14 14 13 13 13 12 12 10 9 9
6 6 7 7 7 6 7 8 7 7 8 6 5 3 2 4 6 6 7 6 8 11 14 15 16 17 17 17 17 17 17 17 17 17 17 17 16 16
7 7 8 8 9 8 8 9 8 8 8 7 6 4 4 5 6 6 6 5 5 7 11 12 15 17 17 17 17 18 19 20 20 21 21 22 22 21
8 8 8 10 12 10 8 8 9 8 8 8 7 6 6 7 7 5 7 7 5 4 6 7 7 9 11 14 15 17 18 20 21 22 22 23 23 23
9 9 9 10 12 13 14 13 13 11 11 9 8 9 9 9 8 10 9 7 4 3 5 6 6 8 7 10 13 16 18 19 21 22 22 23 23 23
10 9 9 9 10 9 11 13 14 16 14 11 11 12 12 13 13 12 10 7 5 7 6 5 5 8 7 11 14 16 17 19 20 21 22 23 23 24
11 11 10 10 10 9 9 9 10 12 14 13 11 12 12 13 14 12 12 9 8 5 4 5 4 5 6 9 12 15 16 18 19 20 21 22 23 24
11 11 11 11 12 12 10 10 10 9 11 13 12 12 15 17 16 13 13 13 8 4 2 5 5 5 5 6 9 13 14 16 18 19 20 20 21 20
9 9 12 13 13 13 11 10 11 9 9 10 10 13 15 18 19 16 15 14 10 6 4 5 8 5 5 3 4 7 10 13 15 15 16 16 15 13
8 8 8 12 14 14 13 10 11 9 10 11 11 12 12 13 13 11 11 13 12 6 8 7 6 4 5 5 3 3 5 6 8 9 11 11 11 10
9 8 8 10 12 12 11 10 11 10 9 10 11 11 12 12 11 11 10 8 5 8 13 9 6 6 8 7 5 4 4 4 5 6 7 9 10 10
9 10 10 10 9 9 11 12 10 9 10 11 12 11 10 12 12 10 10 9 9 11 12 7 9 9 9 8 8 6 4 3 4 4 4 4 4 4
8 8 9 9 7 7 8 9 8 9 10 10 10 10 10 11 12 11 11 10 8 6 5 7 11 11 8 8 9 8 6 5 5 4 4 3 3 3
5 4 5 5 5 6 6 7 7 9 9 9 11 11 12 12 11 11 10 10 7 8 6 5 7 8 7 8 9 8 6 5 5 5 4 4 3 4
5 4 6 6 6 7 7 7 7 9 10 11 12 12 13 13 11 11 11 11 11 9 8 7 8 7 5 5 3 8 6 5 5 5 4 4 4 4
5 5 6 6 6 7 7 7 7 8 9 11 12 13 13 13 13 12 12 11 10 10 9 9 10 9 9 7 3 3 7 5 6 5 5 5 4 4
4 4 5 5 6 7 8 8 8 9 10 11 12 12 13 13 13 12 12 12 11 9 8 8 10 10 9 9 6 4 6 6 6 6 5 4 3 3
4 4 4 5 6 7 8 8 9 10 11 11 12 12 12 13 12 12 11 14 12 10 11 9 6 7 6 6 6 4 4 6 6 5 6 4 4 3
3 3 4 5 6 8 9 9 10 11 12 11 12 11 11 12 13 13 12 12 10 10 9 6 7 6 4 6 7 5 5 4 5 7 8 8 5 5
3 3 5 6 7 8 9 11 12 11 11 11 11 11 11 11 11 11 11 11 10 10 9 7 5 4 3 4 5 4 6 5 4 5 6 14 18 17
Wind_Direction
236 228 222 219 212 213 209 207 219 256 272 247 238 79 74 58 56 62 65 74 81 86 91 94 95 97 120 187 224 229 231 232 234 234 232 230 230 229
238 234 232 224 216 214 212 212 213 225 250 239 224 190 120 99 87 84 81 76 74 78 80 82 84 82 82 84 91 113 155 182 201 215 219 222 225 228
258 245 240 228 219 217 212 211 213 216 240 243 219 181 152 137 111 95 87 78 74 75 78 77 78 78 76 76 79 84 84 84 88 97 110 135 170 191
254 254 255 244 229 218 213 215 215 213 222 232 213 188 167 150 130 114 100 90 84 78 78 77 76 77 77 77 78 78 79 80 82 84 86 92 100 107
248 246 251 250 246 231 221 220 218 215 212 214 205 182 153 145 132 117 107 99 91 84 78 75 75 76 76 77 79 81 82 82 82 82 81 82 84 88
246 246 247 244 245 239 230 225 218 214 209 206 198 179 160 150 143 138 124 105 95 85 79 76 75 74 73 76 80 83 84 85 84 83 82 82 82 83
249 250 250 249 245 240 235 224 213 212 208 203 194 181 171 164 159 149 137 120 87 90 91 72 71 70 68 69 77 84 87 88 88 87 86 85 85 84
250 256 258 260 255 247 239 225 211 209 208 203 197 190 182 171 157 153 147 143 130 127 102 79 71 73 66 73 81 88 90 91 92 91 90 89 88 87
244 252 260 259 249 249 245 232 221 214 208 203 199 193 181 173 163 162 162 151 134 146 120 92 77 75 66 71 83 90 94 95 95 95 94 92 91 90
243 245 249 257 252 241 242 236 229 221 215 213 210 196 182 172 167 160 147 122 109 118 117 110 104 88 75 68 76 92 98 99 100 100 98 96 94 91
244 244 243 250 246 232 232 232 229 224 217 207 199 183 167 159 154 146 145 142 137 137 120 118 129 109 85 69 68 88 98 102 103 104 103 101 98 93
247 246 241 241 241 228 226 223 223 215 193 185 177 165 162 159 158 161 160 155 147 146 157 133 147 134 106 81 75 90 97 98 101 103 105 106 104 101
243 246 243 234 235 229 221 222 220 201 186 178 169 164 162 164 165 162 161 161 157 150 159 144 151 135 124 131 112 97 112 118 111 103 101 103 103 106
238 243 240 234 232 229 222 214 207 192 182 174 168 165 164 165 164 159 151 144 126 144 154 148 145 148 137 138 138 136 121 122 126 121 116 106 96 94
237 237 235 232 229 230 221 202 192 189 181 176 171 166 162 158 151 141 125 111 97 124 142 142 141 144 145 144 147 150 148 148 146 141 138 136 133 129
233 234 226 222 220 219 201 193 195 189 180 173 161 152 146 149 151 148 144 138 124 110 77 118 144 145 143 141 148 153 157 158 162 162 155 154 155 158
203 209 204 199 204 203 194 188 182 177 171 158 152 151 150 150 150 150 148 148 145 149 138 102 93 99 113 143 151 156 156 156 161 160 166 179 193 198
189 205 203 202 200 194 184 175 170 168 162 154 153 152 152 152 149 151 156 159 155 153 148 142 137 123 108 72 116 159 162 161 161 165 174 190 207 209
204 212 205 197 190 181 172 164 160 156 152 151 150 149 147 148 150 152 155 154 152 150 152 155 158 157 163 164 144 164 168 161 161 173 190 201 216 214
210 208 199 185 176 169 161 154 149 145 144 144 143 144 145 146 148 150 153 152 149 144 147 159 168 169 174 169 159 164 176 168 174 184 189 203 231 258
203 201 184 167 162 157 150 147 145 142 140 139 139 140 143 144 146 149 149 147 146 149 158 163 153 127 114 120 131 152 178 194 185 180 178 190 212 228
170 164 157 151 147 147 144 141 138 136 137 137 137 138 141 143 145 147 149 153 155 153 148 135 135 137 139 161 171 169 170 176 199 209 208 204 200 214
134 138 139 135 131 133 136 136 135 137 139 138 137 139 140 141 144 147 150 152 150 145 138 137 144 150 154 168 173 177 182 184 191 208 230 232 236 246
Height
1473 1475 1477 1479 1481 1482 1483 1484 1485 1484 1483 1483 1483 1483 1483 1484 1484 1485 1485 1486 1487 1488 1489 1490 1491 1493 1493 1494 1496 1498 1499 1501 1504 1506 1508 1511 1513 1516
1466 1468 1469 1472 1474 1476 1478 1479 1480 1481 1480 1480 1481 1481 1481 1481 1482 1482 1483 1484 1484 1485 1486 1487 1487 1488 1489 1490 1491 1492 1494 1496 1497 1499 1502 1504 1506 1508
1459 1460 1462 1465 1467 1470 1472 1473 1474 1475 1476 1476 1478 1478 1479 1479 1479 1480 1481 1481 1482 1483 1483 1484 1484 1485 1485 1486 1487 1488 1490 1491 1492 1494 1496 1498 1500 1503
1452 1453 1455 1457 1460 1463 1465 1467 1468 1470 1471 1472 1473 1475 1475 1476 1477 1478 1479 1480 1481 1481 1482 1482 1482 1483 1483 1484 1485 1486 1487 1488 1489 1491 1492 1494 1496 1498
1445 1446 1448 1450 1452 1455 1458 1460 1462 1464 1465 1467 1469 1471 1472 1473 1475 1476 1478 1479 1480 1480 1481 1481 1482 1482 1483 1483 1484 1485 1486 1487 1488 1489 1490 1491 1493 1494
1439 1440 1441 1443 1445 1448 1450 1453 1455 1457 1459 1461 1463 1466 1468 1470 1472 1474 1476 1478 1479 1480 1481 1482 1482 1483 1483 1484 1485 1486 1486 1487 1488 1489 1490 1491 1492 1493
1433 1434 1435 1436 1438 1441 1443 1446 1448 1450 1453 1455 1458 1460 1463 1466 1468 1471 1474 1476 1478 1480 1481 1482 1483 1483 1484 1485 1486 1487 1488 1488 1489 1490 1491 1492 1493 1494
1426 1427 1428 1429 1431 1433 1436 1438 1441 1443 1446 1449 1451 1454 1457 1461 1464 1468 1471 1474 1476 1479 1481 1482 1484 1484 1485 1486 1487 1489 1489 1490 1491 1492 1493 1494 1495 1496
1419 1420 1420 1422 1424 1426 1428 1430 1432 1435 1439 1442 1445 1448 1452 1455 1459 1464 1468 1472 1474 1477 1480 1481 1484 1485 1487 1488 1489 1490 1491 1492 1493 1494 1495 1496 1497 1498
1411 1412 1413 1414 1416 1418 1420 1422 1425 1428 1431 1435 1438 1442 1447 1451 1456 1460 1464 1469 1473 1477 1480 1481 1484 1485 1488 1489 1491 1492 1493 1494 1495 1496 1497 1498 1499 1500
1404 1405 1406 1407 1409 1411 1413 1415 1418 1421 1425 1429 1433 1437 1442 1447 1451 1456 1461 1465 1470 1475 1478 1480 1483 1485 1488 1490 1492 1494 1495 1496 1497 1498 1499 1500 1501 1502
1397 1398 1399 1400 1402 1404 1406 1408 1411 1414 1418 1423 1427 1431 1436 1441 1447 1452 1456 1461 1466 1472 1476 1478 1482 1484 1489 1492 1493 1495 1497 1498 1499 1500 1501 1502 1503 1504
1389 1390 1392 1393 1395 1397 1399 1401 1404 1409 1413 1417 1422 1426 1431 1437 1443 1449 1455 1460 1464 1468 1472 1476 1480 1483 1485 1490 1494 1496 1498 1500 1501 1502 1503 1504 1505 1506
1381 1383 1384 1386 1388 1390 1392 1395 1399 1403 1407 1411 1416 1421 1427 1433 1440 1446 1453 1460 1465 1468 1471 1475 1478 1482 1484 1488 1492 1496 1499 1501 1503 1504 1505 1506 1507 1508
1375 1376 1378 1379 1381 1383 1385 1389 1393 1397 1401 1406 1411 1417 1423 1430 1438 1445 1452 1458 1464 1469 1473 1477 1480 1482 1485 1487 1491 1495 1498 1501 1503 1505 1506 1508 1509 1510
1368 1370 1371 1373 1375 1377 1379 1383 1387 1391 1396 1401 1407 1414 1421 1428 1435 1442 1449 1456 1462 1467 1472 1477 1481 1484 1486 1489 1492 1495 1498 1501 1503 1505 1507 1509 1510 1511
1363 1364 1365 1367 1369 1371 1374 1377 1382 1386 1392 1397 1404 1410 1418 1426 1434 1441 1447 1454 1460 1465 1470 1476 1480 1484 1488 1490 1493 1495 1498 1501 1503 1506 1508 1509 1511 1512
1358 1359 1360 1362 1364 1366 1369 1373 1378 1383 1388 1394 1401 1408 1416 1424 1431 1439 1446 1452 1458 1464 1469 1474 1478 1483 1487 1491 1494 1496 1498 1501 1503 1505 1507 1509 1510 1512
1354 1354 1356 1357 1360 1362 1365 1370 1375 1381 1387 1393 1400 1408 1415 1423 1430 1437 1444 1451 1457 1463 1468 1473 1477 1481 1485 1488 1492 1496 1498 1500 1502 1504 1506 1508 1510 1511
1349 1350 1352 1354 1357 1360 1364 1369 1374 1381 1387 1394 1401 1408 1415 1423 1430 1437 1444 1450 1456 1462 1467 1472 1476 1480 1484 1487 1490 1494 1496 1499 1501 1503 1505 1507 1508 1509
1347 1348 1350 1353 1356 1359 1364 1369 1375 1382 1388 1395 1402 1409 1416 1423 1430 1437 1443 1450 1456 1461 1466 1471 1475 1480 1484 1487 1490 1492 1495 1497 1500 1502 1504 1505 1506 1507
1347 1348 1350 1353 1356 1360 1365 1371 1378 1384 1390 1397 1403 1411 1418 1425 1431 1437 1443 1449 1455 1461 1465 1470 1474 1479 1482 1486 1488 1491 1494 1496 1498 1500 1502 1503 1504 1504
1348 1350 1352 1355 1359 1363 1368 1374 1380 1387 1393 1400 1406 1413 1420 1426 1432 1438 1444 1450 1455 1460 1464 1469 1474 1478 1481 1485 1487 1490 1492 1494 1496 1498 1499 1500 1501 1501